If you wish to contribute or participate in the discussions about articles you are invited to join SKYbrary as a registered user

 Actions

Neuquén/Presidente Perón International Airport

From SKYbrary Wiki

SAZN
Airport
ICAO: SAZN – IATA: NQN
Summary
Name Neuquén/Presidente Perón International Airport
Region South America and Caribbean
Territory Argentina AR.gif
Location Neuquén, Neuquén
Serving Neuquén
Elevation 292.913 m <br />961 ft <br />961 ft292.913 m <br />
Coordinates 38° 57' 7.06" S, 68° 8' 25.15" W
Runways
Designator Length Width Surface ROPS
9/27 2570 m8,431.759 ft <br /> 45 m147.638 ft <br /> ASP yes/yes


METAR
Observation SAZN 250900Z 32004KT CAVOK 05/03 Q1011
Station Neuquen Aerodrome
Date/Time 25 June 2021 09:00:00
Wind direction 320°
Wind speed 04 kts
Lowest cloud amount clouds and visibility OK
Temperature 5°C
Dew point 3°C
Humidity 86%
QNH 1011 hPa
Weather condition n/a

Presidente Perón International Airport is an airport in Neuquén Province, Argentina serving the cities of Neuquén, Cipolletti, Plottier, Centenario, and General Roca.

Maps

Terrain

Loading map...

Airport Layout

Loading map...


Accidents & Serious Incidents at or in vicinity of SAZN

None on SKYbrary